Home > Weather > Pully > Past weeks

Flag for Switzerland Past Weather in Pully, Vaud, Switzerland — Yesterday and Last 2 Weeks

Now
64 °F

Mild.


Feels Like: 64 °F
Forecast: 62 / 79 °F
Wind: 2 mph from North

Location: Aigle

Current Time: Jul 25, 2016 at 2:21:02 AM

Latest Report: Jul 25, 2016 at 1:00 AM


Visibility: N/A

Pressure: 30.11 "Hg

Humidity: 96%

Dew Point: 63 °F

Location of PullyLocation

Past Weather in Pully — Graph

°F

Pully Temperature Yesterday

Maximum temperature yesterday: 79 °F (at 4:00 PM)
Minimum temperature yesterday: 62 °F (at 7:00 AM)
Average temperature yesterday: 70 °F

High & Low Weather Summary for the Past Weeks

 TemperatureHumidityPressure
High88 °F (Jul 20, 5:00 PM)97% (Jul 22, 7:00 AM)30.31 "Hg (Jul 22, 7:00 AM)
Low46 °F (Jul 15, 6:00 AM)38% (Jul 16, 5:00 PM)29.86 "Hg (Jul 10, 6:00 PM)
Average67 °F76%30.07 "Hg
* Reported Jul 10 1:00 AM — Jul 25 1:00 AM, Pully, Weather by CustomWeather, © 2016

Note: Actual official high and low records may vary slightly from our data, if they occured in-between our weather recording intervals... More about our weather records

Advertising

Pully Weather History for the Previous 24 Hours

Scroll right to see more
 ConditionsComfort  
Time TempWeatherWind HumidityBarometerVisibility
1:00 AM
Mon, Jul 25
64 °FMild.2 mph96%30.11 "HgN/A
12:00 AM65 °FMild.1 mph95%30.11 "HgN/A
11:00 PM
Sun, Jul 24
67 °FMild.2 mph86%30.10 "HgN/A
10:00 PM69 °FMild.2 mph87%30.09 "HgN/A
9:00 PM69 °FMild.3 mph90%30.06 "HgN/A
8:00 PM72 °FOvercast.1 mph78%30.04 "Hg11 mi
7:00 PM73 °FMild.12 mph78%30.02 "HgN/A
6:00 PM78 °FWarm.8 mph65%30.00 "HgN/A
5:00 PM76 °FScattered clouds.10 mph66%30.01 "Hg11 mi
4:00 PM79 °FWarm.12 mph61%30.00 "HgN/A
3:00 PM78 °FWarm.13 mph59%30.02 "HgN/A
2:00 PM77 °FScattered clouds.12 mph64%30.04 "Hg11 mi
1:00 PM76 °FMild.10 mph65%30.05 "HgN/A
12:00 PM75 °FMild.8 mph68%30.06 "HgN/A
11:00 AM72 °FMild.6 mph69%30.07 "HgN/A
10:00 AM71 °FMild.3 mph70%30.08 "HgN/A
9:00 AM68 °FMild.3 mph75%30.09 "HgN/A
8:00 AM65 °FPassing clouds.3 mph79%30.09 "Hg16 mi
7:00 AM62 °FCool.5 mph87%30.11 "HgN/A
6:00 AM62 °FMild.3 mph89%30.10 "HgN/A
5:00 AM62 °FPassing clouds.3 mph90%30.10 "Hg19 mi
4:00 AM63 °FMild.5 mph89%30.11 "HgN/A
3:00 AM64 °FMild.3 mph88%30.11 "HgN/A
2:00 AM63 °FMild.2 mph94%30.12 "HgN/A
Weather by CustomWeather, © 2016

See weather overviewHow to use our weather pages